| time (UTC) | temp F | wind direction | speed MPH | gust MPH | rain 1hr in | rain 24hr in | rain mn in | humidity % | barometer mb |
| 20260507191555 | 64 | 341 | 2.0 | 4.0 | 0.00 | 0.00 | 0.15 | 37 | 1008.0 |
| 20260507191053 | 63 | 308 | 1.0 | 3.0 | 0.00 | 0.00 | 0.15 | 38 | 1008.0 |
| 20260507190552 | 63 | 175 | 1.0 | 2.0 | 0.00 | 0.00 | 0.15 | 36 | 1008.0 |
| 20260507190052 | 63 | 70 | 0.0 | 2.0 | 0.00 | 0.00 | 0.15 | 39 | 1008.0 |
| 20260507185552 | 62 | 207 | 2.0 | 5.0 | 0.00 | 0.00 | 0.15 | 38 | 1008.0 |
| 20260507185053 | 62 | 213 | 2.0 | 3.0 | 0.00 | 0.00 | 0.15 | 37 | 1008.0 |
| 20260507184553 | 62 | 358 | 1.0 | 2.0 | 0.00 | 0.00 | 0.15 | 41 | 1009.0 |
| 20260507184052 | 62 | 284 | 1.0 | 2.0 | 0.00 | 0.00 | 0.15 | 38 | 1009.0 |
| 20260507183552 | 62 | 21 | 2.0 | 3.0 | 0.00 | 0.00 | 0.15 | 40 | 1009.0 |
| 20260507183052 | 62 | 347 | 1.0 | 3.0 | 0.00 | 0.00 | 0.15 | 40 | 1009.0 |
| 20260507182552 | 62 | 19 | 1.0 | 2.0 | 0.00 | 0.00 | 0.15 | 40 | 1009.0 |
| 20260507182053 | 62 | 56 | 2.0 | 3.0 | 0.00 | 0.00 | 0.15 | 41 | 1009.0 |
| 20260507181553 | 62 | 210 | 3.0 | 5.0 | 0.00 | 0.00 | 0.15 | 38 | 1009.0 |
| 20260507181053 | 62 | 217 | 2.0 | 3.0 | 0.00 | 0.00 | 0.15 | 39 | 1009.0 |
| 20260507180553 | 62 | 106 | 0.0 | 2.0 | 0.00 | 0.00 | 0.15 | 40 | 1009.0 |
| 20260507180053 | 62 | 278 | 2.0 | 4.0 | 0.00 | 0.00 | 0.15 | 39 | 1009.0 |
| 20260507175553 | 62 | 42 | 2.0 | 4.0 | 0.00 | 0.00 | 0.15 | 39 | 1009.0 |
| 20260507175054 | 61 | 209 | 1.0 | 3.0 | 0.00 | 0.00 | 0.15 | 39 | 1009.0 |
| 20260507174552 | 61 | 144 | 0.0 | 4.0 | 0.00 | 0.00 | 0.15 | 40 | 1009.0 |
| 20260507174053 | 61 | 23 | 2.0 | 3.0 | 0.00 | 0.00 | 0.15 | 40 | 1009.0 |
| 20260507173553 | 60 | 186 | 0.0 | 0.0 | 0.00 | 0.00 | 0.15 | 41 | 1009.0 |
| 20260507173052 | 61 | 118 | 1.0 | 3.0 | 0.00 | 0.00 | 0.15 | 38 | 1010.0 |
| 20260507172552 | 60 | 60 | 0.0 | 2.0 | 0.00 | 0.00 | 0.15 | 40 | 1010.0 |
| 20260507172053 | 60 | 7 | 1.0 | 3.0 | 0.00 | 0.00 | 0.15 | 41 | 1010.0 |
| 20260507171552 | 60 | 219 | 2.0 | 3.0 | 0.00 | 0.00 | 0.15 | 40 | 1010.0 |
| 20260507171053 | 60 | 358 | 2.0 | 4.0 | 0.00 | 0.00 | 0.15 | 38 | 1010.0 |
| 20260507170553 | 60 | 104 | 2.0 | 4.0 | 0.00 | 0.00 | 0.15 | 40 | 1010.0 |
| 20260507170052 | 60 | 166 | 1.0 | 3.0 | 0.00 | 0.00 | 0.15 | 41 | 1010.0 |
| 20260507165552 | 60 | 16 | 1.0 | 4.0 | 0.00 | 0.00 | 0.15 | 40 | 1010.0 |
| 20260507165052 | 60 | 330 | 2.0 | 3.0 | 0.00 | 0.00 | 0.15 | 40 | 1010.0 |
| 20260507164552 | 59 | 75 | 1.0 | 3.0 | 0.00 | 0.00 | 0.15 | 41 | 1010.0 |
| 20260507164053 | 59 | 348 | 2.0 | 4.0 | 0.00 | 0.00 | 0.15 | 40 | 1010.0 |
| 20260507163553 | 59 | 351 | 1.0 | 3.0 | 0.00 | 0.00 | 0.15 | 41 | 1010.0 |
| 20260507163052 | 59 | 32 | 2.0 | 3.0 | 0.00 | 0.00 | 0.15 | 41 | 1010.0 |
| 20260507162553 | 59 | 189 | 1.0 | 3.0 | 0.00 | 0.00 | 0.15 | 40 | 1010.0 |
| 20260507162053 | 59 | 13 | 1.0 | 2.0 | 0.00 | 0.00 | 0.15 | 42 | 1010.0 |
| 20260507161553 | 58 | 274 | 0.0 | 2.0 | 0.00 | 0.00 | 0.15 | 45 | 1010.0 |
| 20260507161053 | 58 | 169 | 4.0 | 6.0 | 0.00 | 0.00 | 0.15 | 41 | 1010.0 |
| 20260507160553 | 58 | 356 | 1.0 | 2.0 | 0.00 | 0.00 | 0.15 | 43 | 1011.0 |
| 20260507160052 | 58 | 251 | 2.0 | 3.0 | 0.00 | 0.00 | 0.15 | 42 | 1011.0 |
| 20260507155553 | 58 | 29 | 1.0 | 2.0 | 0.00 | 0.00 | 0.15 | 43 | 1011.0 |
| 20260507155053 | 57 | 233 | 1.0 | 2.0 | 0.00 | 0.00 | 0.15 | 45 | 1011.0 |
| 20260507154553 | 57 | 292 | 2.0 | 4.0 | 0.00 | 0.00 | 0.15 | 47 | 1011.0 |
| 20260507154053 | 57 | 211 | 1.0 | 3.0 | 0.00 | 0.00 | 0.15 | 46 | 1011.0 |
| 20260507153552 | 57 | 263 | 2.0 | 6.0 | 0.00 | 0.00 | 0.15 | 45 | 1011.0 |
| 20260507153053 | 57 | 254 | 2.0 | 3.0 | 0.00 | 0.00 | 0.15 | 44 | 1011.0 |
| 20260507152552 | 57 | 31 | 1.0 | 2.0 | 0.00 | 0.00 | 0.15 | 45 | 1011.0 |
| 20260507152053 | 57 | 275 | 0.0 | 1.0 | 0.00 | 0.00 | 0.15 | 46 | 1011.0 |
| 20260507151552 | 57 | 156 | 2.0 | 4.0 | 0.00 | 0.00 | 0.15 | 46 | 1011.0 |
| 20260507151053 | 57 | 139 | 1.0 | 2.0 | 0.00 | 0.00 | 0.15 | 47 | 1011.0 |
| 20260507150553 | 56 | 82 | 1.0 | 3.0 | 0.00 | 0.00 | 0.15 | 48 | 1011.0 |
| 20260507150053 | 56 | 140 | 2.0 | 5.0 | 0.00 | 0.00 | 0.15 | 47 | 1011.0 |
| 20260507145553 | 56 | 116 | 1.0 | 2.0 | 0.00 | 0.00 | 0.15 | 43 | 1011.0 |
| 20260507145055 | 56 | 327 | 0.0 | 1.0 | 0.00 | 0.00 | 0.15 | 46 | 1012.0 |
| 20260507144553 | 56 | 293 | 2.0 | 5.0 | 0.00 | 0.00 | 0.15 | 45 | 1011.0 |
| 20260507144053 | 56 | 316 | 2.0 | 3.0 | 0.00 | 0.00 | 0.15 | 45 | 1012.0 |
| 20260507143553 | 56 | 180 | 1.0 | 3.0 | 0.00 | 0.00 | 0.15 | 46 | 1012.0 |
| 20260507143054 | 55 | 9 | 1.0 | 2.0 | 0.00 | 0.00 | 0.15 | 48 | 1012.0 |
| 20260507142553 | 55 | 87 | 1.0 | 4.0 | 0.00 | 0.00 | 0.15 | 49 | 1012.0 |
| 20260507142053 | 55 | 7 | 2.0 | 4.0 | 0.00 | 0.00 | 0.15 | 51 | 1012.0 |
| 20260507141552 | 55 | 214 | 1.0 | 3.0 | 0.00 | 0.00 | 0.15 | 53 | 1012.0 |
| 20260507141053 | 55 | 354 | 2.0 | 4.0 | 0.00 | 0.00 | 0.15 | 52 | 1012.0 |
| 20260507140552 | 55 | 258 | 1.0 | 2.0 | 0.00 | 0.00 | 0.15 | 56 | 1012.0 |
| 20260507140056 | 55 | 163 | 1.0 | 3.0 | 0.00 | 0.00 | 0.15 | 56 | 1012.0 |
| 20260507135553 | 54 | 79 | 0.0 | 2.0 | 0.00 | 0.00 | 0.15 | 58 | 1012.0 |
| 20260507135052 | 54 | 45 | 1.0 | 3.0 | 0.00 | 0.00 | 0.15 | 56 | 1012.0 |
| 20260507134553 | 54 | 315 | 2.0 | 3.0 | 0.00 | 0.00 | 0.15 | 57 | 1012.0 |
| 20260507134053 | 53 | 21 | 1.0 | 3.0 | 0.00 | 0.00 | 0.15 | 59 | 1012.0 |
| 20260507133552 | 53 | 21 | 1.0 | 2.0 | 0.00 | 0.00 | 0.15 | 59 | 1012.0 |
| 20260507133052 | 53 | 288 | 2.0 | 4.0 | 0.00 | 0.00 | 0.15 | 60 | 1012.0 |
| 20260507132552 | 53 | 17 | 1.0 | 2.0 | 0.00 | 0.00 | 0.15 | 65 | 1012.0 |
| 20260507132054 | 53 | 264 | 2.0 | 2.0 | 0.00 | 0.00 | 0.15 | 64 | 1012.0 |
| 20260507131553 | 53 | 234 | 0.0 | 2.0 | 0.00 | 0.00 | 0.15 | 64 | 1012.0 |
| 20260507131053 | 53 | 315 | 1.0 | 2.0 | 0.00 | 0.00 | 0.15 | 64 | 1012.0 |
| 20260507130552 | 53 | 210 | 0.0 | 1.0 | 0.00 | 0.00 | 0.15 | 65 | 1012.0 |
| 20260507130052 | 53 | 211 | 1.0 | 2.0 | 0.00 | 0.00 | 0.15 | 68 | 1012.0 |
| 20260507125553 | 53 | 262 | 1.0 | 2.0 | 0.00 | 0.00 | 0.15 | 68 | 1012.0 |
| 20260507125053 | 52 | 252 | 1.0 | 4.0 | 0.00 | 0.00 | 0.15 | 72 | 1012.0 |
| 20260507124553 | 52 | 239 | 1.0 | 2.0 | 0.00 | 0.00 | 0.15 | 73 | 1012.0 |
| 20260507124052 | 51 | 4 | 1.0 | 2.0 | 0.00 | 0.00 | 0.15 | 74 | 1012.0 |
| 20260507123552 | 51 | 241 | 3.0 | 4.0 | 0.00 | 0.00 | 0.15 | 72 | 1012.0 |
| 20260507123053 | 51 | 240 | 0.0 | 1.0 | 0.00 | 0.00 | 0.15 | 77 | 1012.0 |
| 20260507122554 | 50 | 257 | 2.0 | 3.0 | 0.00 | 0.00 | 0.15 | 80 | 1012.0 |
| 20260507122052 | 49 | 166 | 1.0 | 2.0 | 0.00 | 0.00 | 0.15 | 82 | 1012.0 |
| 20260507121553 | 48 | 225 | 1.0 | 1.0 | 0.00 | 0.00 | 0.15 | 88 | 1012.0 |
| 20260507121053 | 48 | 226 | 2.0 | 2.0 | 0.00 | 0.00 | 0.15 | 88 | 1012.0 |
| 20260507120553 | 48 | 0 | 0.0 | 0.0 | 0.00 | 0.00 | 0.15 | 90 | 1012.0 |
| 20260507120053 | 48 | 189 | 1.0 | 1.0 | 0.00 | 0.00 | 0.15 | 90 | 1012.0 |
| 20260507115553 | 48 | 267 | 0.0 | 1.0 | 0.00 | 0.00 | 0.15 | 91 | 1012.0 |
| 20260507115052 | 48 | 216 | 1.0 | 2.0 | 0.00 | 0.00 | 0.15 | 91 | 1012.0 |
| 20260507114553 | 47 | 156 | 0.0 | 1.0 | 0.00 | 0.00 | 0.15 | 91 | 1012.0 |
| 20260507114053 | 47 | 232 | 0.0 | 2.0 | 0.00 | 0.00 | 0.15 | 91 | 1012.0 |
| 20260507113552 | 47 | 280 | 1.0 | 2.0 | 0.00 | 0.00 | 0.15 | 92 | 1012.0 |
| 20260507113053 | 47 | 210 | 1.0 | 2.0 | 0.00 | 0.00 | 0.15 | 92 | 1011.0 |
| 20260507112553 | 47 | 242 | 2.0 | 2.0 | 0.00 | 0.00 | 0.15 | 92 | 1011.0 |
| 20260507112052 | 47 | 243 | 2.0 | 2.0 | 0.00 | 0.00 | 0.15 | 93 | 1011.0 |
| 20260507111552 | 47 | 225 | 0.0 | 0.0 | 0.00 | 0.00 | 0.15 | 93 | 1011.0 |
| 20260507111053 | 47 | 256 | 2.0 | 2.0 | 0.00 | 0.00 | 0.15 | 93 | 1011.0 |
| 20260507110552 | 47 | 254 | 0.0 | 1.0 | 0.00 | 0.00 | 0.15 | 94 | 1011.0 |
| 20260507110053 | 48 | 233 | 0.0 | 1.0 | 0.00 | 0.00 | 0.15 | 94 | 1011.0 |
| 20260507105552 | 48 | 262 | 2.0 | 2.0 | 0.00 | 0.00 | 0.15 | 94 | 1011.0 |
| 20260507105052 | 48 | 244 | 1.0 | 1.0 | 0.00 | 0.00 | 0.15 | 94 | 1011.0 |
| 20260507104552 | 48 | 207 | 0.0 | 1.0 | 0.00 | 0.00 | 0.15 | 94 | 1011.0 |
| 20260507104052 | 48 | 259 | 0.0 | 0.0 | 0.00 | 0.00 | 0.15 | 94 | 1011.0 |
| 20260507103552 | 48 | 243 | 2.0 | 2.0 | 0.00 | 0.00 | 0.15 | 94 | 1011.0 |
| 20260507103052 | 48 | 252 | 1.0 | 2.0 | 0.00 | 0.00 | 0.15 | 94 | 1011.0 |
| 20260507102553 | 48 | 273 | 1.0 | 1.0 | 0.00 | 0.00 | 0.15 | 94 | 1011.0 |
| 20260507102053 | 48 | 215 | 1.0 | 1.0 | 0.00 | 0.00 | 0.15 | 94 | 1011.0 |
| 20260507101553 | 48 | 257 | 0.0 | 1.0 | 0.00 | 0.00 | 0.15 | 94 | 1011.0 |
| 20260507101053 | 48 | 256 | 1.0 | 1.0 | 0.00 | 0.00 | 0.15 | 94 | 1010.0 |
| 20260507100553 | 48 | 265 | 0.0 | 0.0 | 0.00 | 0.00 | 0.15 | 94 | 1010.0 |
| 20260507100053 | 48 | 259 | 1.0 | 2.0 | 0.00 | 0.00 | 0.15 | 94 | 1010.0 |
| 20260507095553 | 48 | 204 | 0.0 | 0.0 | 0.00 | 0.00 | 0.15 | 94 | 1010.0 |
| 20260507095052 | 48 | 255 | 1.0 | 2.0 | 0.00 | 0.00 | 0.15 | 94 | 1010.0 |
| 20260507094553 | 48 | 254 | 0.0 | 0.0 | 0.00 | 0.00 | 0.15 | 94 | 1010.0 |
| 20260507094052 | 48 | 223 | 0.0 | 1.0 | 0.00 | 0.00 | 0.15 | 94 | 1010.0 |
| 20260507093553 | 48 | 276 | 0.0 | 1.0 | 0.00 | 0.00 | 0.15 | 94 | 1010.0 |
| 20260507093053 | 48 | 285 | 0.0 | 0.0 | 0.00 | 0.00 | 0.15 | 94 | 1010.0 |
| 20260507092552 | 48 | 199 | 0.0 | 1.0 | 0.00 | 0.00 | 0.15 | 93 | 1010.0 |
| 20260507092053 | 48 | 239 | 0.0 | 0.0 | 0.00 | 0.00 | 0.15 | 93 | 1010.0 |
| 20260507091553 | 48 | 256 | 0.0 | 0.0 | 0.00 | 0.00 | 0.15 | 93 | 1010.0 |
| 20260507091052 | 48 | 257 | 0.0 | 1.0 | 0.00 | 0.00 | 0.15 | 93 | 1010.0 |
| 20260507090553 | 48 | 226 | 1.0 | 1.0 | 0.00 | 0.00 | 0.15 | 93 | 1010.0 |
| 20260507090053 | 48 | 193 | 0.0 | 0.0 | 0.00 | 0.00 | 0.15 | 93 | 1010.0 |
| 20260507085552 | 48 | 0 | 0.0 | 0.0 | 0.00 | 0.00 | 0.15 | 93 | 1010.0 |
| 20260507085053 | 48 | 179 | 0.0 | 0.0 | 0.00 | 0.00 | 0.15 | 93 | 1010.0 |
| 20260507084552 | 48 | 162 | 0.0 | 0.0 | 0.00 | 0.00 | 0.15 | 93 | 1010.0 |
| 20260507084053 | 48 | 197 | 0.0 | 1.0 | 0.00 | 0.00 | 0.15 | 93 | 1010.0 |
| 20260507083552 | 48 | 267 | 0.0 | 0.0 | 0.00 | 0.00 | 0.15 | 93 | 1010.0 |
| 20260507083053 | 48 | 252 | 1.0 | 1.0 | 0.00 | 0.00 | 0.15 | 93 | 1010.0 |
| 20260507082554 | 49 | 172 | 0.0 | 0.0 | 0.00 | 0.00 | 0.15 | 93 | 1010.0 |
| 20260507082052 | 49 | 214 | 0.0 | 1.0 | 0.00 | 0.00 | 0.16 | 93 | 1010.0 |
| 20260507081553 | 49 | 182 | 0.0 | 0.0 | 0.00 | 0.00 | 0.16 | 93 | 1010.0 |
| 20260507081053 | 49 | 229 | 1.0 | 2.0 | 0.00 | 0.00 | 0.16 | 93 | 1010.0 |
| 20260507080553 | 49 | 206 | 0.0 | 1.0 | 0.00 | 0.00 | 0.16 | 93 | 1010.0 |
| 20260507080053 | 49 | 210 | 1.0 | 1.0 | 0.00 | 0.00 | 0.16 | 93 | 1010.0 |
| 20260507075554 | 49 | 213 | 0.0 | 0.0 | 0.00 | 0.00 | 0.16 | 93 | 1010.0 |
| 20260507075052 | 49 | 170 | 0.0 | 0.0 | 0.02 | 0.00 | 0.15 | 93 | 1010.0 |
| 20260507074553 | 49 | 178 | 1.0 | 1.0 | 0.00 | 0.00 | 0.15 | 93 | 1010.0 |
| 20260507074053 | 49 | 0 | 0.0 | 0.0 | 0.01 | 0.00 | 0.14 | 93 | 1010.0 |
| 20260507073553 | 49 | 247 | 1.0 | 1.0 | 0.04 | 0.00 | 0.15 | 93 | 1011.0 |
| 20260507073053 | 49 | 261 | 1.0 | 2.0 | 0.14 | 0.00 | 0.14 | 93 | 1010.0 |
| 20260507072553 | 49 | 241 | 0.0 | 1.0 | 0.01 | 0.00 | 0.14 | 92 | 1011.0 |
| 20260507072053 | 49 | 247 | 0.0 | 1.0 | 0.15 | 0.00 | 0.14 | 92 | 1011.0 |
| 20260507071552 | 49 | 231 | 1.0 | 1.0 | 0.09 | 0.00 | 0.13 | 92 | 1010.0 |
| 20260507071052 | 49 | 182 | 1.0 | 1.0 | 0.00 | 0.00 | 0.12 | 92 | 1011.0 |
| 20260507070552 | 49 | 0 | 0.0 | 0.0 | 0.09 | 0.00 | 0.11 | 92 | 1010.0 |
| 20260507070052 | 49 | 0 | 0.0 | 0.0 | 0.02 | 0.00 | 0.10 | 91 | 1010.0 |
| 20260507065552 | 49 | 234 | 0.0 | 1.0 | 0.06 | 0.00 | 0.10 | 91 | 1010.0 |
| 20260507065052 | 49 | 249 | 1.0 | 2.0 | 0.13 | 0.00 | 0.10 | 91 | 1011.0 |
| 20260507064553 | 49 | 200 | 0.0 | 1.0 | 0.03 | 0.00 | 0.09 | 90 | 1010.0 |
| 20260507064053 | 49 | 296 | 0.0 | 0.0 | 0.03 | 0.00 | 0.09 | 90 | 1011.0 |
| 20260507063553 | 50 | 140 | 1.0 | 2.0 | 0.11 | 0.00 | 0.08 | 90 | 1010.0 |
| 20260507063054 | 50 | 244 | 0.0 | 1.0 | 0.03 | 0.00 | 0.07 | 90 | 1011.0 |
| 20260507062554 | 50 | 270 | 1.0 | 2.0 | 0.11 | 0.00 | 0.07 | 89 | 1010.0 |
| 20260507062053 | 50 | 207 | 0.0 | 0.0 | 0.05 | 0.00 | 0.06 | 90 | 1010.0 |
| 20260507061553 | 51 | 181 | 0.0 | 2.0 | 0.07 | 0.00 | 0.05 | 89 | 1010.0 |
| 20260507061054 | 51 | 184 | 0.0 | 1.0 | 0.07 | 0.00 | 0.05 | 89 | 1010.0 |
| 20260507060553 | 51 | 203 | 0.0 | 1.0 | 0.08 | 0.00 | 0.04 | 88 | 1010.0 |
| 20260507060054 | 51 | 222 | 1.0 | 2.0 | 0.19 | 0.00 | 0.03 | 88 | 1010.0 |
| 20260507055552 | 51 | 157 | 0.0 | 0.0 | 0.03 | 0.00 | 0.03 | 88 | 1010.0 |
| 20260507055052 | 51 | 273 | 1.0 | 2.0 | 0.00 | 0.00 | 0.02 | 87 | 1010.0 |
| 20260507054553 | 51 | 172 | 0.0 | 1.0 | 0.00 | 0.00 | 0.02 | 86 | 1010.0 |
| 20260507054052 | 52 | 0 | 0.0 | 0.0 | 0.01 | 0.00 | 0.01 | 85 | 1010.0 |
| 20260507053558 | 52 | 273 | 1.0 | 1.0 | 0.00 | 0.00 | 0.01 | 87 | 1010.0 |
| 20260507053052 | 52 | 181 | 1.0 | 2.0 | 0.00 | 0.00 | 0.01 | 86 | 1010.0 |
| 20260507052552 | 52 | 0 | 0.0 | 0.0 | 0.00 | 0.00 | 0.01 | 87 | 1010.0 |
| 20260507052052 | 52 | 186 | 0.0 | 0.0 | 0.00 | 0.00 | 0.02 | 87 | 1009.0 |
| 20260507051553 | 52 | 163 | 0.0 | 0.0 | 0.00 | 0.00 | 0.02 | 87 | 1009.0 |
| 20260507051052 | 53 | 222 | 0.0 | 0.0 | 0.00 | 0.00 | 0.02 | 87 | 1009.0 |
| 20260507050552 | 53 | 284 | 0.0 | 0.0 | 0.00 | 0.00 | 0.00 | 87 | 1009.0 |
| 20260507050053 | 53 | 195 | 1.0 | 2.0 | 0.00 | 0.00 | 0.00 | 87 | 1009.0 |
| 20260507045552 | 53 | 176 | 1.0 | 1.0 | 0.00 | 0.00 | 0.00 | 86 | 1009.0 |
| 20260507045053 | 53 | 0 | 0.0 | 0.0 | 0.00 | 0.00 | 0.00 | 87 | 1009.0 |
| 20260507044552 | 53 | 0 | 0.0 | 0.0 | 0.00 | 0.00 | 0.00 | 87 | 1010.0 |
| 20260507044052 | 54 | 188 | 0.0 | 1.0 | 0.00 | 0.00 | 0.00 | 87 | 1010.0 |
| 20260507043552 | 54 | 215 | 0.0 | 1.0 | 0.00 | 0.00 | 0.00 | 87 | 1010.0 |
| 20260507043053 | 54 | 0 | 0.0 | 0.0 | 0.00 | 0.00 | 0.00 | 86 | 1010.0 |
| 20260507042555 | 54 | 186 | 0.0 | 1.0 | 0.00 | 0.00 | 0.00 | 87 | 1010.0 |
| 20260507041621 | 54 | 209 | 0.0 | 1.0 | 0.00 | 0.00 | 0.00 | 87 | 1009.0 |
| 20260507041053 | 54 | 0 | 0.0 | 0.0 | 0.00 | 0.00 | 0.00 | 87 | 1010.0 |
| 20260507040555 | 54 | 216 | 0.0 | 0.0 | 0.00 | 0.00 | 0.00 | 87 | 1010.0 |
| 20260507040055 | 54 | 182 | 0.0 | 1.0 | 0.00 | 0.00 | 0.00 | 87 | 1010.0 |
| 20260507035552 | 55 | 230 | 1.0 | 1.0 | 0.00 | 0.00 | 0.18 | 87 | 1010.0 |
| 20260507035052 | 55 | 198 | 0.0 | 1.0 | 0.00 | 0.00 | 0.18 | 88 | 1010.0 |
| 20260507034552 | 55 | 177 | 0.0 | 0.0 | 0.00 | 0.00 | 0.18 | 88 | 1010.0 |
| 20260507034053 | 55 | 257 | 0.0 | 0.0 | 0.00 | 0.00 | 0.18 | 87 | 1010.0 |
| 20260507033552 | 55 | 254 | 0.0 | 1.0 | 0.00 | 0.00 | 0.18 | 89 | 1010.0 |
| 20260507033052 | 55 | 204 | 1.0 | 1.0 | 0.00 | 0.00 | 0.18 | 89 | 1009.0 |
| 20260507032553 | 55 | 242 | 1.0 | 2.0 | 0.00 | 0.00 | 0.18 | 89 | 1010.0 |
| 20260507032053 | 55 | 183 | 3.0 | 3.0 | 0.00 | 0.00 | 0.18 | 90 | 1009.0 |
| 20260507031553 | 55 | 0 | 0.0 | 0.0 | 0.00 | 0.00 | 0.18 | 89 | 1009.0 |
| 20260507031052 | 55 | 211 | 2.0 | 2.0 | 0.00 | 0.00 | 0.18 | 89 | 1009.0 |
| 20260507030553 | 55 | 235 | 0.0 | 1.0 | 0.00 | 0.00 | 0.18 | 89 | 1009.0 |
| 20260507030053 | 55 | 198 | 1.0 | 2.0 | 0.00 | 0.00 | 0.18 | 89 | 1009.0 |
| 20260507025552 | 55 | 219 | 2.0 | 2.0 | 0.00 | 0.00 | 0.18 | 88 | 1009.0 |
| 20260507025052 | 55 | 131 | 0.0 | 1.0 | 0.00 | 0.00 | 0.18 | 89 | 1009.0 |
| 20260507024553 | 55 | 177 | 1.0 | 1.0 | 0.00 | 0.00 | 0.18 | 89 | 1009.0 |
| 20260507024054 | 55 | 190 | 2.0 | 2.0 | 0.00 | 0.00 | 0.18 | 89 | 1009.0 |
| 20260507023552 | 55 | 193 | 0.0 | 1.0 | 0.00 | 0.00 | 0.18 | 89 | 1009.0 |
| 20260507023055 | 55 | 199 | 1.0 | 1.0 | 0.00 | 0.00 | 0.18 | 90 | 1009.0 |
| 20260507022553 | 55 | 165 | 0.0 | 1.0 | 0.00 | 0.00 | 0.18 | 89 | 1009.0 |
| 20260507022053 | 55 | 249 | 0.0 | 1.0 | 0.00 | 0.00 | 0.18 | 89 | 1009.0 |
| 20260507021552 | 55 | 0 | 0.0 | 0.0 | 0.00 | 0.00 | 0.18 | 89 | 1009.0 |
| 20260507021052 | 55 | 203 | 0.0 | 1.0 | 0.00 | 0.00 | 0.18 | 89 | 1009.0 |
| 20260507020552 | 56 | 31 | 0.0 | 1.0 | 0.00 | 0.00 | 0.18 | 89 | 1010.0 |
| 20260507020053 | 56 | 222 | 1.0 | 1.0 | 0.00 | 0.00 | 0.17 | 89 | 1009.0 |
| 20260507015553 | 57 | 27 | 0.0 | 1.0 | 0.00 | 0.00 | 0.17 | 89 | 1009.0 |
| 20260507015053 | 57 | 153 | 1.0 | 2.0 | 0.00 | 0.00 | 0.17 | 89 | 1009.0 |
| 20260507014553 | 58 | 239 | 1.0 | 3.0 | 0.00 | 0.00 | 0.17 | 90 | 1009.0 |
| 20260507014052 | 59 | 133 | 1.0 | 2.0 | 0.00 | 0.00 | 0.17 | 90 | 1009.0 |
| 20260507013553 | 60 | 61 | 2.0 | 2.0 | 0.02 | 0.00 | 0.17 | 90 | 1009.0 |
| 20260507013052 | 61 | 359 | 2.0 | 2.0 | 0.00 | 0.00 | 0.17 | 92 | 1009.0 |
| 20260507012552 | 62 | 345 | 1.0 | 2.0 | 0.01 | 0.00 | 0.17 | 93 | 1009.0 |
| 20260507012052 | 62 | 113 | 0.0 | 0.0 | 0.00 | 0.00 | 0.17 | 93 | 1009.0 |
| 20260507011553 | 62 | 79 | 0.0 | 0.0 | 0.01 | 0.00 | 0.17 | 93 | 1009.0 |
| 20260507011052 | 62 | 0 | 0.0 | 0.0 | 0.00 | 0.00 | 0.16 | 93 | 1009.0 |
| 20260507010554 | 62 | 0 | 0.0 | 0.0 | 0.02 | 0.00 | 0.17 | 93 | 1009.0 |
| 20260507010053 | 62 | 171 | 2.0 | 2.0 | 0.07 | 0.00 | 0.17 | 93 | 1009.0 |
| 20260507005553 | 62 | 0 | 0.0 | 0.0 | 0.12 | 0.00 | 0.16 | 93 | 1009.0 |
| 20260507005052 | 62 | 0 | 0.0 | 0.0 | 0.10 | 0.00 | 0.14 | 93 | 1009.0 |
| 20260507004552 | 62 | 0 | 0.0 | 0.0 | 0.08 | 0.00 | 0.13 | 93 | 1009.0 |
| 20260507004052 | 62 | 0 | 0.0 | 0.0 | 0.03 | 0.00 | 0.13 | 92 | 1008.0 |
| 20260507003552 | 62 | 0 | 0.0 | 0.0 | 0.00 | 0.00 | 0.13 | 92 | 1008.0 |
| 20260507003053 | 62 | 0 | 0.0 | 0.0 | 0.00 | 0.00 | 0.13 | 92 | 1008.0 |
| 20260507002553 | 62 | 0 | 0.0 | 0.0 | 0.00 | 0.00 | 0.13 | 92 | 1008.0 |
| 20260507002052 | 62 | 0 | 0.0 | 0.0 | 0.00 | 0.00 | 0.13 | 92 | 1008.0 |
| 20260507001553 | 62 | 0 | 0.0 | 0.0 | 0.00 | 0.00 | 0.13 | 91 | 1008.0 |
| 20260507001053 | 62 | 0 | 0.0 | 0.0 | 0.00 | 0.00 | 0.13 | 91 | 1008.0 |
| 20260507000552 | 62 | 0 | 0.0 | 0.0 | 0.00 | 0.00 | 0.13 | 91 | 1008.0 |
| 20260507000053 | 62 | 0 | 0.0 | 0.0 | 0.00 | 0.00 | 0.13 | 91 | 1008.0 |
| 20260506235553 | 62 | 0 | 0.0 | 0.0 | 0.00 | 0.00 | 0.13 | 91 | 1008.0 |
| 20260506235052 | 63 | 0 | 0.0 | 0.0 | 0.00 | 0.00 | 0.13 | 91 | 1008.0 |
| 20260506234552 | 63 | 154 | 0.0 | 0.0 | 0.00 | 0.00 | 0.13 | 91 | 1008.0 |
| 20260506234052 | 63 | 0 | 0.0 | 0.0 | 0.00 | 0.00 | 0.13 | 91 | 1008.0 |
| 20260506233556 | 63 | 0 | 0.0 | 0.0 | 0.00 | 0.00 | 0.13 | 91 | 1008.0 |
| 20260506233053 | 63 | 158 | 0.0 | 0.0 | 0.00 | 0.00 | 0.13 | 91 | 1008.0 |
| 20260506232553 | 63 | 216 | 1.0 | 2.0 | 0.00 | 0.00 | 0.13 | 91 | 1008.0 |
| 20260506232052 | 63 | 0 | 0.0 | 0.0 | 0.00 | 0.00 | 0.13 | 91 | 1008.0 |
| 20260506231552 | 63 | 96 | 0.0 | 1.0 | 0.00 | 0.00 | 0.13 | 91 | 1008.0 |
| 20260506231054 | 63 | 226 | 0.0 | 1.0 | 0.00 | 0.00 | 0.13 | 90 | 1008.0 |
| 20260506230552 | 63 | 189 | 0.0 | 1.0 | 0.00 | 0.00 | 0.13 | 91 | 1008.0 |
| 20260506230052 | 63 | 0 | 0.0 | 0.0 | 0.00 | 0.00 | 0.13 | 90 | 1008.0 |
| 20260506225552 | 63 | 335 | 0.0 | 0.0 | 0.00 | 0.00 | 0.13 | 90 | 1008.0 |
| 20260506225053 | 63 | 198 | 0.0 | 0.0 | 0.00 | 0.00 | 0.13 | 91 | 1008.0 |
| 20260506224554 | 63 | 59 | 0.0 | 0.0 | 0.00 | 0.00 | 0.13 | 91 | 1008.0 |
| 20260506224053 | 63 | 0 | 0.0 | 0.0 | 0.00 | 0.00 | 0.13 | 91 | 1008.0 |
| 20260506223552 | 63 | 196 | 0.0 | 1.0 | 0.00 | 0.00 | 0.13 | 91 | 1008.0 |
| 20260506223053 | 62 | 210 | 1.0 | 2.0 | 0.00 | 0.00 | 0.13 | 91 | 1008.0 |
| 20260506222553 | 62 | 0 | 0.0 | 0.0 | 0.00 | 0.00 | 0.13 | 91 | 1008.0 |
| 20260506222053 | 62 | 0 | 0.0 | 0.0 | 0.00 | 0.00 | 0.13 | 91 | 1008.0 |
| 20260506221553 | 62 | 0 | 0.0 | 0.0 | 0.00 | 0.00 | 0.13 | 91 | 1008.0 |
| 20260506221052 | 62 | 0 | 0.0 | 0.0 | 0.00 | 0.00 | 0.13 | 91 | 1008.0 |
| 20260506220552 | 62 | 0 | 0.0 | 0.0 | 0.00 | 0.00 | 0.13 | 91 | 1008.0 |
| 20260506220053 | 62 | 176 | 1.0 | 2.0 | 0.00 | 0.00 | 0.13 | 92 | 1008.0 |
| 20260506215552 | 62 | 0 | 0.0 | 0.0 | 0.00 | 0.00 | 0.13 | 92 | 1008.0 |
| 20260506215052 | 62 | 0 | 0.0 | 0.0 | 0.00 | 0.00 | 0.13 | 92 | 1008.0 |
| 20260506214552 | 62 | 0 | 0.0 | 0.0 | 0.00 | 0.00 | 0.13 | 92 | 1007.0 |
| 20260506214052 | 62 | 164 | 0.0 | 1.0 | 0.00 | 0.00 | 0.13 | 92 | 1007.0 |
| 20260506213553 | 62 | 188 | 0.0 | 2.0 | 0.00 | 0.00 | 0.13 | 92 | 1007.0 |
| 20260506213052 | 62 | 191 | 0.0 | 1.0 | 0.00 | 0.00 | 0.13 | 92 | 1007.0 |
| 20260506212553 | 62 | 262 | 0.0 | 0.0 | 0.00 | 0.00 | 0.13 | 92 | 1007.0 |
| 20260506212052 | 62 | 158 | 1.0 | 2.0 | 0.00 | 0.00 | 0.13 | 92 | 1007.0 |
| 20260506211553 | 61 | 192 | 2.0 | 2.0 | 0.00 | 0.00 | 0.13 | 92 | 1007.0 |
| 20260506211052 | 61 | 290 | 0.0 | 1.0 | 0.00 | 0.00 | 0.13 | 93 | 1007.0 |
| 20260506210554 | 61 | 178 | 0.0 | 0.0 | 0.00 | 0.00 | 0.13 | 93 | 1007.0 |
| 20260506210053 | 61 | 34 | 0.0 | 0.0 | 0.00 | 0.00 | 0.13 | 93 | 1007.0 |
| 20260506205553 | 61 | 195 | 1.0 | 2.0 | 0.00 | 0.00 | 0.13 | 93 | 1007.0 |
| 20260506205053 | 61 | 268 | 0.0 | 1.0 | 0.00 | 0.00 | 0.13 | 93 | 1007.0 |
| 20260506204553 | 61 | 187 | 0.0 | 1.0 | 0.00 | 0.00 | 0.13 | 93 | 1007.0 |
| 20260506204052 | 61 | 186 | 0.0 | 0.0 | 0.00 | 0.00 | 0.13 | 93 | 1007.0 |
| 20260506203553 | 61 | 280 | 0.0 | 1.0 | 0.00 | 0.00 | 0.13 | 93 | 1007.0 |
| 20260506203059 | 61 | 192 | 1.0 | 2.0 | 0.00 | 0.00 | 0.13 | 93 | 1007.0 |
| 20260506202552 | 61 | 189 | 1.0 | 2.0 | 0.00 | 0.00 | 0.13 | 93 | 1007.0 |
| 20260506202052 | 61 | 202 | 1.0 | 1.0 | 0.00 | 0.00 | 0.12 | 93 | 1007.0 |
| 20260506201553 | 61 | 258 | 0.0 | 1.0 | 0.00 | 0.00 | 0.12 | 93 | 1007.0 |
| 20260506201052 | 61 | 194 | 2.0 | 2.0 | 0.00 | 0.00 | 0.12 | 93 | 1007.0 |
| 20260506200552 | 61 | 213 | 1.0 | 2.0 | 0.00 | 0.00 | 0.12 | 93 | 1007.0 |
| 20260506200052 | 61 | 226 | 1.0 | 2.0 | 0.00 | 0.00 | 0.12 | 93 | 1007.0 |
| 20260506195552 | 61 | 200 | 1.0 | 2.0 | 0.00 | 0.00 | 0.12 | 93 | 1007.0 |
| 20260506195053 | 61 | 248 | 0.0 | 1.0 | 0.00 | 0.00 | 0.12 | 93 | 1007.0 |
| 20260506194553 | 61 | 192 | 1.0 | 2.0 | 0.00 | 0.00 | 0.12 | 93 | 1008.0 |
| 20260506194052 | 61 | 247 | 1.0 | 2.0 | 0.00 | 0.00 | 0.12 | 93 | 1008.0 |
| 20260506193553 | 61 | 206 | 2.0 | 2.0 | 0.00 | 0.00 | 0.12 | 93 | 1008.0 |
| 20260506193053 | 61 | 208 | 2.0 | 3.0 | 0.00 | 0.00 | 0.12 | 92 | 1008.0 |
| 20260506192552 | 61 | 165 | 0.0 | 1.0 | 0.07 | 0.00 | 0.12 | 92 | 1008.0 |
| 20260506192053 | 61 | 347 | 1.0 | 2.0 | 0.10 | 0.00 | 0.12 | 92 | 1008.0 |